This is the latest recevied weather packets stored in our database for station/object KQ4UPF. If no packets are shown the sender has not sent any weather packets the latest 1 day(s).
| Time | Temp. | Humidity | Pressure | Rain* | Wind** | Luminosity | Snow |
|---|---|---|---|---|---|---|---|
| 1778032448 | 20.56° C | 72% | 1012.4 hPa | 0 mm | 0 m/s | 0 W/m² | - |
| 1778032144 | 20.56° C | 73% | 1012.3 hPa | 0 mm | 0.45 m/s, 142° | 0 W/m² | - |
| 1778031841 | 20.56° C | 66% | 1012.3 hPa | 0 mm | 0 m/s | 0 W/m² | - |
| 1778031538 | 20.56° C | 69% | 1012.1 hPa | 0 mm | 0 m/s | 0 W/m² | - |
| 1778031236 | 20.56° C | 69% | 1012 hPa | 0 mm | 0.45 m/s, 127° | 0 W/m² | - |
| 1778030932 | 21.11° C | 68% | 1012 hPa | 0 mm | 0 m/s | 0 W/m² | - |
| 1778030629 | 21.11° C | 68% | 1012 hPa | 0 mm | 0.45 m/s, 112° | 0 W/m² | - |
| 1778030326 | 21.11° C | 65% | 1011.9 hPa | 0 mm | 0.45 m/s, 112° | 0 W/m² | - |
| 1778030023 | 21.11° C | 67% | 1011.8 hPa | 0 mm | 0 m/s | 0 W/m² | - |
| 1778029720 | 21.11° C | 68% | 1012 hPa | 0 mm | 0.45 m/s, 104° | 0 W/m² | - |
| 1778029418 | 21.11° C | 68% | 1011.8 hPa | 0 mm | 0.45 m/s, 114° | 0 W/m² | - |
| 1778029115 | 21.11° C | 66% | 1011.6 hPa | 0 mm | 0.45 m/s, 164° | 0 W/m² | - |
| 1778028811 | 20.56° C | 68% | 1011.7 hPa | 0 mm | 0.89 m/s, 105° | 0 W/m² | - |
| 1778028507 | 21.11° C | 67% | 1012 hPa | 0 mm | 0.45 m/s, 97° | 0 W/m² | - |
| 1778028205 | 21.11° C | 66% | 1012.1 hPa | 0 mm | 0.89 m/s, 97° | 0 W/m² | - |
| 1778027901 | 21.67° C | 66% | 1012 hPa | 0 mm | 0.45 m/s, 104° | 1 W/m² | - |
| 1778027597 | 21.67° C | 65% | 1011.7 hPa | 0 mm | 0.89 m/s, 96° | 2 W/m² | - |
| 1778027294 | 21.67° C | 63% | 1011.8 hPa | 0 mm | 0.89 m/s, 87° | 2 W/m² | - |
| 1778026991 | 21.67° C | 65% | 1011.5 hPa | 0 mm | 0.45 m/s, 106° | 3 W/m² | - |
| 1778026686 | 21.67° C | 64% | 1011.7 hPa | 0 mm | 0.89 m/s, 107° | 7 W/m² | - |
| 1778026384 | 21.67° C | 62% | 1011.7 hPa | 0 mm | 0.89 m/s, 92° | 11 W/m² | - |
| 1778026080 | 21.11° C | 66% | 1011.9 hPa | 0 mm | 0.45 m/s, 127° | 14 W/m² | - |
| 1778025778 | 21.67° C | 67% | 1012 hPa | 0 mm | 0 m/s | 13 W/m² | - |
| 1778025475 | 21.67° C | 64% | 1012 hPa | 0 mm | 0 m/s | 12 W/m² | - |
| 1778025172 | 21.67° C | 61% | 1012 hPa | 0 mm | 0 m/s | 23 W/m² | - |
* Rain latest hour (hover to see other rain measurements)
** Current wind speed in m/s (hover to see current wind gust speed)